Port Angeles, WA

6:10 PM PDT on May 26, 2017 (GMT -0700)
Fairchild International

Weather History for KCLM - March, 2013

Change the Weather History Date:

Sunday, March 31, 2013

  Actual Average Record
Temperature  
Mean Temperature 52 °F -  
Max Temperature 64 °F 53 °F 64 °F (2013)
Min Temperature 41 °F 39 °F 30 °F (1986)
Degree Days  
Heating Degree Days 12    
Growing Degree Days 2 (Base 50)    
Moisture  
Dew Point 39 °F    
Average Humidity 61    
Maximum Humidity 85    
Minimum Humidity 37    
Precipitation  
Precipitation 0.00 in - - ()
Sea Level Pressure  
Sea Level Pressure 30.02 in    
Wind  
Wind Speed 6 mph (South)    
Max Wind Speed 13 mph    
Max Gust Speed -    
Visibility 10 miles    
Events      
Averages and records for this station are not official NWS values.
T = Trace of Precipitation, MM = Missing Value Source: NWS Daily Summary

Daily Weather History Graph

Daily Weather History Graph

Search for Another Location

Airport or City:

Trip Planner

Search our weather history database for the weather conditions in past years. The results will help you decide how hot, cold, wet, or windy it might be!

Date:

Astronomy

Mar. 31, 2013 Rise Set
Actual Time 6:53 AM PDT 7:43 PM PDT
Civil Twilight 6:22 AM PDT 8:14 PM PDT
Nautical Twilight 5:44 AM PDT 8:52 PM PDT
Astronomical Twilight 5:04 AM PDT 9:32 PM PDT
Moon 12:14 AM PDT (3/31) 9:26 AM PDT (3/31)
Length of Visible Light 13h 52m
Length of Day
12h 49m
Waning Gibbous, 76% of the Moon is Illuminated
Mar 31
Waning Gibbous
Apr 2
Last Quarter
Apr 10
New
Apr 18
First Quarter
Apr 25
Full

Hourly Weather History & Observations

Time (PDT) Temp. Windchill Dew Point Humidity Pressure Visibility Wind Dir Wind Speed Gust Speed Precip Events Conditions
12:53 AM 45.0 °F 42.6 °F 37.9 °F 76% 30.11 in 10.0 mi SW 4.6 mph - N/A   Clear
1:53 AM 45.0 °F 41.8 °F 37.9 °F 76% 30.10 in 10.0 mi SW 5.8 mph - N/A   Clear
2:53 AM 41.0 °F 37.1 °F 36.0 °F 82% 30.08 in 10.0 mi SW 5.8 mph - N/A   Clear
3:53 AM 42.1 °F 38.4 °F 37.0 °F 82% 30.08 in 10.0 mi SW 5.8 mph - N/A   Clear
4:53 AM 42.1 °F 38.4 °F 36.0 °F 79% 30.07 in 10.0 mi SW 5.8 mph - N/A   Clear
5:53 AM 43.0 °F 39.5 °F 37.0 °F 80% 30.07 in 10.0 mi SW 5.8 mph - N/A   Clear
6:53 AM 42.1 °F 37.1 °F 37.0 °F 82% 30.07 in 10.0 mi SW 8.1 mph - N/A   Clear
7:53 AM 44.1 °F 40.8 °F 39.9 °F 85% 30.07 in 10.0 mi SW 5.8 mph - N/A   Clear
8:53 AM 54.0 °F - 43.0 °F 66% 30.06 in 10.0 mi ESE 3.5 mph - N/A   Clear
9:53 AM 57.0 °F - 41.0 °F 55% 30.06 in 10.0 mi East 6.9 mph - N/A   Clear
10:53 AM 57.0 °F - 41.0 °F 55% 30.06 in 10.0 mi East 8.1 mph - N/A   Clear
11:53 AM 57.0 °F - 41.0 °F 55% 30.06 in 10.0 mi East 8.1 mph - N/A   Clear
12:53 PM 59.0 °F - 41.0 °F 51% 30.05 in 10.0 mi East 8.1 mph - N/A   Clear
1:53 PM 61.0 °F - 39.9 °F 46% 30.03 in 10.0 mi ENE 4.6 mph - N/A   Clear
2:53 PM 63.0 °F - 39.0 °F 41% 30.00 in 10.0 mi Variable 4.6 mph - N/A   Clear
3:53 PM 63.0 °F - 36.0 °F 37% 29.99 in 10.0 mi NE 5.8 mph - N/A   Clear
4:53 PM 64.0 °F - 37.0 °F 37% 29.96 in 10.0 mi East 5.8 mph - N/A   Clear
5:53 PM 63.0 °F - 36.0 °F 37% 29.95 in 10.0 mi East 4.6 mph - N/A   Clear
6:53 PM 61.0 °F - 35.1 °F 38% 29.94 in 10.0 mi Calm Calm - N/A   Clear
7:53 PM 55.9 °F - 37.9 °F 51% 29.94 in 10.0 mi Calm Calm - N/A   Clear
8:53 PM 51.1 °F - 41.0 °F 68% 29.95 in 10.0 mi WSW 6.9 mph - N/A   Clear
9:53 PM 55.9 °F - 41.0 °F 57% 29.95 in 10.0 mi West 12.7 mph - N/A   Clear
10:53 PM 51.1 °F - 39.9 °F 66% 29.96 in 10.0 mi WSW 3.5 mph - N/A   Clear
11:53 PM 48.9 °F - 39.9 °F 71% 29.97 in 10.0 mi West 5.8 mph - N/A   Clear